ショーマス彗星

24P/Schaumasse (2017)

English version
Home page
Updated on April 7, 2018

---------------------------------------------------------------------

・ プロフィール

・ 写真集

・ 軌道要素

Epoch 2017 Nov. 23.0 TT = JDT 2458080.5
T 2017 Nov. 16.92673 TT                                 MPCW
q   1.2063302            (2000.0)            P               Q
n   0.11943688     Peri.   58.05829     -0.72204650     -0.66228864
a   4.0836052      Node    79.62988     +0.54603784     -0.72309719
e   0.7045919      Incl.   11.73460     +0.42484296     -0.19622490
P   8.25
From 656 observations 1992 Sept. 24-2017 Oct. 1, mean residual 0".8.
     Nongravitational parameters A1 = +0.08, A2 = -0.0478.

・ 星図

・ 光度変化

        m1 = 12.0 + 5 logΔ + 17.0 log r  [   ,-90]  (              〜2017年 8月18日)
        m1 =  6.0 + 5 logΔ + 45.0 log r  [-90,  0]  (2017年 8月18日〜2017年11月16日)
        m1 =  7.2 + 5 logΔ + 30.0 log r  [  0,170]  (2017年11月16日〜2018年 5月 5日)
        m1 = 12.0 + 5 logΔ + 17.0 log r  [170,   ]  (2018年 5月 5日〜              )

---------------------------------------------------------------------

軌道要素はM.P.E.C. 2017-T14に掲載されたものです。
星図はステラナビゲータ Ver.8 (アストロアーツ) で作成したものです。
光度グラフはComet for Windowsで作成したものです。

---------------------------------------------------------------------

Copyright(C) Seiichi Yoshida (comet@aerith.net). All rights reserved.